915  
ASUS43 KIWX 261510  
RWRIWX  
 
KIWX WEATHER ROUNDUP  
NATIONAL WEATHER SERVICE NORTHERN INDIANA  
1100 AM EDT WED APR 26 2017  
 
NOTE: "FAIR" INDICATES FEW OR NO CLOUDS BELOW 12,000 FEET WITH NO  
SIGNIFICANT WEATHER AND/OR S TO VISIBILITY
.  
 
* THESE STATIONS ARE NOT UNDER NWS QUALITY CONTROL. THEY ALSO MAY NOT  
REPORT WEATHER SUCH AS PRECIPITATION OR FOG.
 
 
INZ001>027-261600-  
NORTHERN INDIANA  
 
CITY SKY/WX TMP DP RH WIND PRES REMARKS
 
GARY* MOSUNNY 73 55 53 S15 29.44F  
VALPARAISO MOSUNNY 73 58 59 S20G29 29.45F  
MICHIGAN CITY* PTSUNNY 72 55 56 S8G22 29.45F  
LAPORTE* MOSUNNY 72 57 60 S18 29.47F  
KNOX* MOSUNNY 72 32 23 S22G28 29.49F  
SOUTH BEND MOSUNNY 71 58 63 S20G25 29.50F  
ELKHART* MOSUNNY 72 57 60 S10 29.52F  
GOSHEN MOSUNNY 70 56 61 S17G24 29.54F  
MONTICELLO* SUNNY 71 57 60 S15G21 29.50F  
LOGANSPORT* SUNNY 72 57 60 S21 29.55F  
ROCHESTER* MOSUNNY 72 57 60 S13G21 29.53F  
WARSAW* MOSUNNY 70 55 60 S12G20 29.55F  
ANGOLA* SUNNY 68 61 77 S13 29.59F  
FORT WAYNE CLOUDY 75 58 55 S17 29.60F  
HUNTINGTON* MOSUNNY 70 56 61 S13 29.59F  
PERU/GRISSOM MOSUNNY 71 60 66 S18G26 29.54F  
MARION* CLOUDY 72 57 60 S18G25 29.60F  
 

 
INZ028>050-261600-  
CENTRAL INDIANA  
 
CITY SKY/WX TMP DP RH WIND PRES REMARKS
 
LAFAYETTE SUNNY 71 59 65 S13G22 29.48  
KOKOMO* MOSUNNY 72 59 63 S21 29.58F  
MUNCIE* CLOUDY 73 57 57 S13G21 29.61F  
INDIANAPOLIS CLOUDY 72 59 63 S20 29.59S  
 

 
MIZ043>046-050>051-056>058-064>065-071>073-077>080-261600-  
SOUTHWEST LOWER MICHIGAN  
 
CITY SKY/WX TMP DP RH WIND PRES REMARKS
 
BATTLE CREEK MOSUNNY 69 58 67 S14 29.57F  
BENTON HARBOR PTSUNNY 71 56 58 S13G20 29.47F  
COLDWATER* MOSUNNY 68 58 68 SE12G18 29.59F  
HILLSDALE* MOSUNNY 66 55 68 SE9G20 29.62F  
HOLLAND PTSUNNY 72 57 59 S15G24 29.47F  
GRAND RAPIDS CLOUDY 71 58 63 SE17 29.52F  
KALAMAZOO PTSUNNY 70 55 59 S12G21 29.55F  
STURGIS* PTSUNNY 69 57 64 S17 29.56F  
THREE RIVERS* FAIR 69 56 64 S17 29.55F  
 

 
OHZ001>008-015>018-024>025-261600-  
NORTHWEST OHIO  
 
CITY SKY/WX TMP DP RH WIND PRES REMARKS
 
WAUSEON* FAIR 73 59 60 S18 29.64F  
DEFIANCE PTSUNNY 71 56 58 S12G21 29.63F  
FINDLAY MOSUNNY 72 56 57 SE18G24 29.66F  
TOLEDO EXPRESS MOSUNNY 71 57 61 S7G20 29.65F  
TOLEDO METCALF SUNNY 72 59 63 S17 29.68S  
LIMA PTSUNNY 72 58 61 S15 29.66F  
 

 
AND FOR LAKE MICHIGAN COASTAL AND OPEN LAKE BUOY OBSERVATIONS  
 
STATION/POSITION TEMP WIND PRES VSBY WAVE
 
AIR SEA DIR/SP/G HT/PER  
(F) (DEG/KT/KT) (MB) (MI) (FT/S)  
CALUMET HARBOR 70 170/ 13/ 17 996.1F  
MICHIGAN CITY 69 140/ 18/ 24 N/A  
BURNS HARBOR 71 170/ 11/ 20 997.3F  
SOUTH LAKE BUOY 48 41 110/ 14/ 16 997.6 2/ 4  
4 MI NW BRIDGMAN 61 49 180/ 14/ 17 997.6 2/ 3  
MICHIGAN CITY 63 49 N/A 2/ 2  
 

 

 
 
 
CLICK HERE TO GO TO PREVIOUS BULLETINS.

The Nexlab IN Page
The Nexlab OH Page
The Nexlab MI Page Main Text Page